• In India
  • List of Countries
  • For 7 days
  • Water Temperature
  • Satellite Maps
  • Weather Map
  • Weather Widgets
  • user-avatar
    Login

    Hourly Weather Nowogard

    Today, 14 December, Thursday

    Time Temperature Precipitation Wind Pressure Humidity
    00:00 -1°C° 0.1 mm 9 mps 740 mmHg 76%
    01:00 -1°C° 0.1 mm 8 mps 739 mmHg 77%
    02:00 -1°C° 0.1 mm 8 mps 738 mmHg 77%
    03:00 -1°C° 0.1 mm 8 mps 736 mmHg 76%
    04:00 -1°C° 0.1 mm 7 mps 735 mmHg 76%
    05:00 -1°C° 0.6 mm 7 mps 734 mmHg 79%
    06:00 0°C° 0.6 mm 7 mps 734 mmHg 83%
    07:00 0°C° 0.6 mm 7 mps 733 mmHg 86%
    08:00 0°C° 0.2 mm 7 mps 733 mmHg 86%
    09:00 +2°C° 0.2 mm 6 mps 734 mmHg 87%
    10:00 +2°C° 0.2 mm 6 mps 734 mmHg 87%
    11:00 +2°C° 0 mm 6 mps 734 mmHg 86%
    12:00 +2°C° 0 mm 5 mps 734 mmHg 85%
    13:00 +2°C° 0 mm 5 mps 735 mmHg 84%
    14:00 +1°C° 0 mm 5 mps 735 mmHg 85%
    15:00 +1°C° 0 mm 5 mps 736 mmHg 87%
    16:00 +1°C° 0 mm 4 mps 736 mmHg 88%
    17:00 +1°C° 0.1 mm 5 mps 737 mmHg 87%
    18:00 +1°C° 0.1 mm 5 mps 737 mmHg 85%
    19:00 +1°C° 0.1 mm 5 mps 737 mmHg 84%
    20:00 0°C° 0 mm 5 mps 738 mmHg 84%
    21:00 0°C° 0 mm 5 mps 738 mmHg 84%
    22:00 -1°C° 0 mm 5 mps 738 mmHg 85%
    23:00 -1°C° 0 mm 5 mps 738 mmHg 86%

    Tomorrow, 15 December, Friday

    Time Temperature Precipitation Wind Pressure Humidity
    00:00 -1°C° 0 mm 5 mps 738 mmHg 87%
    01:00 -1°C° 0 mm 5 mps 738 mmHg 88%
    02:00 -1°C° 0 mm 5 mps 738 mmHg 89%
    03:00 -1°C° 0 mm 4 mps 738 mmHg 91%
    04:00 -2°C° 0 mm 4 mps 738 mmHg 92%
    05:00 -2°C° 0 mm 4 mps 738 mmHg 93%
    06:00 -1°C° 0 mm 3 mps 738 mmHg 93%
    07:00 -1°C° 0 mm 3 mps 738 mmHg 94%
    08:00 -1°C° 0 mm 3 mps 738 mmHg 93%
    09:00 0°C° 0 mm 3 mps 739 mmHg 92%
    10:00 0°C° 0 mm 3 mps 739 mmHg 91%
    11:00 -1°C° 0 mm 4 mps 739 mmHg 88%
    12:00 0°C° 0 mm 4 mps 739 mmHg 86%
    13:00 0°C° 0 mm 4 mps 739 mmHg 83%
    14:00 0°C° 0 mm 4 mps 740 mmHg 86%
    15:00 -1°C° 0 mm 4 mps 740 mmHg 88%
    16:00 -1°C° 0 mm 4 mps 741 mmHg 90%
    17:00 -1°C° 0 mm 5 mps 741 mmHg 90%
    18:00 -1°C° 0 mm 5 mps 741 mmHg 89%
    19:00 -1°C° 0 mm 5 mps 741 mmHg 89%
    20:00 -1°C° 0 mm 5 mps 742 mmHg 89%
    21:00 -1°C° 0 mm 5 mps 742 mmHg 89%
    22:00 0°C° 0 mm 5 mps 742 mmHg 88%
    23:00 -1°C° 0 mm 5 mps 742 mmHg 89%

    Day after tomorrow, 16 December, Saturday

    Time Temperature Precipitation Wind Pressure Humidity
    00:00 -1°C° 0 mm 5 mps 742 mmHg 90%
    01:00 -1°C° 0 mm 5 mps 742 mmHg 91%
    02:00 -1°C° 0 mm 5 mps 742 mmHg 91%
    03:00 -1°C° 0 mm 5 mps 742 mmHg 90%
    04:00 -1°C° 0 mm 5 mps 742 mmHg 90%
    05:00 -1°C° 0.1 mm 5 mps 743 mmHg 90%
    06:00 -1°C° 0.1 mm 5 mps 743 mmHg 89%
    07:00 -1°C° 0.1 mm 5 mps 743 mmHg 89%
    08:00 -1°C° 0 mm 5 mps 743 mmHg 88%
    09:00 -1°C° 0 mm 5 mps 744 mmHg 88%
    10:00 -1°C° 0 mm 5 mps 744 mmHg 87%
    11:00 0°C° 0 mm 5 mps 744 mmHg 84%
    12:00 -1°C° 0 mm 6 mps 745 mmHg 81%
    13:00 -1°C° 0 mm 6 mps 745 mmHg 79%
    14:00 -1°C° 0 mm 6 mps 745 mmHg 80%
    15:00 0°C° 0 mm 5 mps 745 mmHg 82%
    16:00 0°C° 0 mm 5 mps 746 mmHg 83%
    17:00 -1°C° 0.1 mm 5 mps 746 mmHg 84%
    18:00 -1°C° 0.1 mm 5 mps 747 mmHg 85%
    19:00 -2°C° 0.1 mm 6 mps 747 mmHg 87%
    20:00 -2°C° 0.2 mm 6 mps 747 mmHg 86%
    21:00 -2°C° 0.2 mm 6 mps 748 mmHg 86%
    22:00 -2°C° 0.2 mm 6 mps 748 mmHg 86%
    23:00 -2°C° 0.2 mm 6 mps 749 mmHg 85%

    17 December, Sunday

    Time Temperature Precipitation Wind Pressure Humidity
    00:00 -2°C° 0.2 mm 6 mps 750 mmHg 85%
    01:00 -1°C° 0.2 mm 6 mps 750 mmHg 85%
    02:00 -1°C° 0.1 mm 6 mps 751 mmHg 85%
    03:00 -1°C° 0.1 mm 6 mps 752 mmHg 85%
    04:00 -1°C° 0.1 mm 5 mps 752 mmHg 85%
    05:00 -1°C° 0.1 mm 5 mps 753 mmHg 86%
    06:00 -1°C° 0.1 mm 5 mps 754 mmHg 86%
    07:00 -1°C° 0.1 mm 5 mps 754 mmHg 86%
    08:00 -1°C° 0 mm 5 mps 755 mmHg 85%
    09:00 -1°C° 0 mm 5 mps 756 mmHg 84%
    10:00 -1°C° 0 mm 5 mps 756 mmHg 83%
    11:00 0°C° 0 mm 5 mps 757 mmHg 81%
    12:00 0°C° 0 mm 5 mps 757 mmHg 79%
    13:00 0°C° 0 mm 5 mps 757 mmHg 77%
    14:00 0°C° 0 mm 4 mps 758 mmHg 78%
    15:00 -1°C° 0 mm 4 mps 758 mmHg 80%
    16:00 0°C° 0 mm 3 mps 758 mmHg 81%
    17:00 -1°C° 0 mm 3 mps 759 mmHg 83%
    18:00 -1°C° 0 mm 3 mps 759 mmHg 85%
    19:00 -1°C° 0 mm 3 mps 759 mmHg 87%
    20:00 -1°C° 0 mm 3 mps 759 mmHg 88%
    21:00 -2°C° 0 mm 3 mps 759 mmHg 89%
    22:00 -2°C° 0 mm 3 mps 759 mmHg 90%
    23:00 -2°C° 0 mm 3 mps 759 mmHg 90%

    18 December, Monday

    Time Temperature Precipitation Wind Pressure Humidity
    00:00 -2°C° 0 mm 3 mps 759 mmHg 90%
    01:00 -2°C° 0 mm 3 mps 759 mmHg 90%
    02:00 -2°C° 0 mm 3 mps 758 mmHg 90%
    03:00 -2°C° 0 mm 3 mps 758 mmHg 91%
    04:00 -3°C° 0 mm 4 mps 757 mmHg 92%
    05:00 -2°C° 0.1 mm 4 mps 757 mmHg 92%
    06:00 -2°C° 0.1 mm 4 mps 756 mmHg 92%
    07:00 -2°C° 0.1 mm 4 mps 756 mmHg 92%
    08:00 -2°C° 0 mm 4 mps 756 mmHg 92%
    09:00 -2°C° 0 mm 4 mps 756 mmHg 91%
    10:00 -2°C° 0 mm 4 mps 755 mmHg 90%
    11:00 0°C° 0 mm 3 mps 756 mmHg 89%
    12:00 0°C° 0 mm 3 mps 756 mmHg 88%
    13:00 0°C° 0 mm 3 mps 756 mmHg 87%
    14:00 0°C° 0 mm 3 mps 756 mmHg 87%
    15:00 0°C° 0 mm 3 mps 757 mmHg 88%
    16:00 -1°C° 0 mm 3 mps 758 mmHg 89%
    17:00 -1°C° 0 mm 2 mps 759 mmHg 89%
    18:00 -1°C° 0 mm 2 mps 760 mmHg 89%
    19:00 -1°C° 0 mm 2 mps 760 mmHg 89%
    20:00 -1°C° 0 mm 2 mps 761 mmHg 89%
    21:00 +1°C° 0 mm 1 mps 762 mmHg 89%
    22:00 +1°C° 0 mm 1 mps 763 mmHg 89%
    23:00 0°C° 0 mm 1 mps 763 mmHg 89%

    19 December, Tuesday

    Time Temperature Precipitation Wind Pressure Humidity
    00:00 0°C° 0 mm 1 mps 764 mmHg 88%
    01:00 0°C° 0 mm 1 mps 764 mmHg 88%
    02:00 0°C° 0 mm 1 mps 765 mmHg 88%
    03:00 0°C° 0 mm 1 mps 765 mmHg 88%
    04:00 0°C° 0 mm 1 mps 765 mmHg 87%
    05:00 0°C° 0 mm 1 mps 766 mmHg 88%
    06:00 0°C° 0 mm 1 mps 766 mmHg 88%
    07:00 0°C° 0 mm 1 mps 767 mmHg 89%
    08:00 -2°C° 0 mm 2 mps 768 mmHg 89%
    09:00 -2°C° 0 mm 2 mps 768 mmHg 88%
    10:00 -1°C° 0 mm 2 mps 769 mmHg 88%
    11:00 -1°C° 0 mm 2 mps 769 mmHg 86%
    12:00 -1°C° 0 mm 2 mps 769 mmHg 85%
    13:00 +1°C° 0 mm 2 mps 769 mmHg 84%
    14:00 -1°C° 0 mm 2 mps 769 mmHg 86%
    15:00 -1°C° 0 mm 2 mps 769 mmHg 88%
    16:00 -2°C° 0 mm 2 mps 769 mmHg 91%
    17:00 -2°C° 0 mm 2 mps 769 mmHg 91%
    18:00 -2°C° 0 mm 3 mps 769 mmHg 92%
    19:00 -2°C° 0 mm 3 mps 770 mmHg 92%
    20:00 -2°C° 0 mm 3 mps 770 mmHg 92%
    21:00 -2°C° 0 mm 3 mps 770 mmHg 93%
    22:00 -2°C° 0 mm 3 mps 770 mmHg 93%
    23:00 -2°C° 0 mm 3 mps 770 mmHg 93%
    Show more